Change the Weather History Date:

Friday, August 22, 2014

  Actual Average Record
Temperature  
Mean Temperature 58 °F -  
Max Temperature 64 °F 62 °F 73 °F (2004)
Min Temperature 53 °F 48 °F 45 °F (1993)
Degree Days  
Heating Degree Days 6    
Growing Degree Days 8 (Base 50)    
Moisture  
Dew Point 51 °F    
Average Humidity 73    
Maximum Humidity 89    
Minimum Humidity 54    
Precipitation  
Precipitation 0.00 in - - ()
Sea Level Pressure  
Sea Level Pressure 30.19 in    
Wind  
Wind Speed 3 mph (West)    
Max Wind Speed 10 mph    
Max Gust Speed -    
Visibility 10 miles    
Events      
Averages and records for this station are not official NWS values.
T = Trace of Precipitation, MM = Missing Value Source: NWS Daily Summary

Daily Weather History Graph

Daily Weather History Graph

Search for Another Location

Airport or City:

Trip Planner

Search our weather history database for the weather conditions in past years. The results will help you decide how hot, cold, wet, or windy it might be!

Date:

Astronomy

Aug. 22, 2014 Rise Set
Actual Time 6:26 AM AKDT 9:36 PM AKDT
Civil Twilight 5:35 AM AKDT 10:26 PM AKDT
Nautical Twilight 4:22 AM AKDT 11:37 PM AKDT
Astronomical Twilight 2:34 AM AKDT 1:29 AM AKDT
Moon 3:36 AM AKDT (8/22) 8:03 PM AKDT (8/22)
Length of Visible Light 16h 51m
Length of Day
15h 10m
Waning Crescent, 7% of the Moon is Illuminated
Aug 22
Waning Crescent
Aug 25
New
Sep 2
First Quarter
Sep 8
Full
Sep 15
Last Quarter

Hourly Weather History & Observations

Time (AKDT) Temp. Dew Point Humidity Pressure Visibility Wind Dir Wind Speed Gust Speed Precip Events Conditions
12:53 AM 61.0 °F 53.1 °F 75% 30.18 in 10.0 mi Calm Calm - N/A   Overcast
1:53 AM 60.1 °F 53.1 °F 78% 30.19 in 10.0 mi SSE 3.5 mph - N/A   Overcast
2:53 AM 59.0 °F 53.1 °F 81% 30.19 in 10.0 mi Calm Calm - N/A   Overcast
4:53 AM 55.0 °F 52.0 °F 89% 30.19 in 10.0 mi Calm Calm - N/A   Mostly Cloudy
5:53 AM 53.1 °F 48.9 °F 86% 30.18 in 10.0 mi Calm Calm - N/A   Mostly Cloudy
7:28 AM 54.0 °F 48.0 °F 80% 30.19 in 10.0 mi Calm Calm - N/A   Mostly Cloudy
7:53 AM 55.0 °F 48.9 °F 80% 30.19 in 10.0 mi Calm Calm - N/A   Scattered Clouds
8:53 AM 55.9 °F 51.1 °F 84% 30.20 in 10.0 mi Calm Calm - N/A   Mostly Cloudy
9:53 AM 57.0 °F 52.0 °F 83% 30.20 in 10.0 mi South 3.5 mph - N/A   Mostly Cloudy
10:53 AM 60.1 °F 51.1 °F 72% 30.20 in 10.0 mi Variable 3.5 mph - N/A   Mostly Cloudy
11:53 AM 62.1 °F 52.0 °F 70% 30.20 in 10.0 mi WNW 4.6 mph - N/A   Partly Cloudy
12:53 PM 62.1 °F 51.1 °F 67% 30.20 in 10.0 mi NW 8.1 mph - N/A   Clear
1:53 PM 64.0 °F 52.0 °F 65% 30.20 in 10.0 mi WNW 4.6 mph - N/A   Clear
2:53 PM 64.9 °F 48.9 °F 56% 30.20 in 10.0 mi West 6.9 mph - N/A   Scattered Clouds
3:53 PM 64.9 °F 48.0 °F 54% 30.19 in 10.0 mi WNW 9.2 mph - N/A   Clear
4:53 PM 63.0 °F 52.0 °F 67% 30.19 in 10.0 mi West 10.4 mph - N/A   Clear
5:53 PM 63.0 °F 51.1 °F 65% 30.18 in 10.0 mi West 8.1 mph - N/A   Clear
6:53 PM 63.0 °F 52.0 °F 67% 30.19 in 10.0 mi West 10.4 mph - N/A   Clear
7:53 PM 62.1 °F 52.0 °F 70% 30.19 in 10.0 mi West 4.6 mph - N/A   Clear
8:53 PM 61.0 °F 48.9 °F 64% 30.19 in 10.0 mi West 4.6 mph - N/A   Clear
9:53 PM 59.0 °F 50.0 °F 72% 30.20 in 10.0 mi Calm Calm - 0.00 in   Clear
10:53 PM 57.9 °F 48.0 °F 70% 30.21 in 10.0 mi Calm Calm - N/A   Clear
11:53 PM 57.0 °F 50.0 °F 77% 30.22 in 10.0 mi East 3.5 mph - N/A   Scattered Clouds